Staples, MN

11:52 PM CDT on August 25, 2016 (GMT -0500)
Staples Municipal

Weather History for KSAZ - November, 2012

Change the Weather History Date:

Monday, November 19, 2012

  Actual Average Record
Temperature  
Mean Temperature 40 °F -  
Max Temperature 55 °F 33 °F 55 °F (2012)
Min Temperature 26 °F 18 °F 1 °F (1996)
Degree Days  
Heating Degree Days 24    
Moisture  
Dew Point 34 °F    
Average Humidity 74    
Maximum Humidity 100    
Minimum Humidity 51    
Precipitation  
Precipitation 0.00 in - - ()
Sea Level Pressure  
Sea Level Pressure 30.01 in    
Wind  
Wind Speed 7 mph (SW)    
Max Wind Speed 12 mph    
Max Gust Speed -    
Visibility 9 miles    
Events      
Averages and records for this station are not official NWS values.
T = Trace of Precipitation, MM = Missing Value Source: NWS Daily Summary

Daily Weather History Graph

Daily Weather History Graph

Search for Another Location

Airport or City:

Trip Planner

Search our weather history database for the weather conditions in past years. The results will help you decide how hot, cold, wet, or windy it might be!

Date:

Astronomy

Nov. 19, 2012 Rise Set
Actual Time 7:27 AM CST 4:41 PM CST
Civil Twilight 6:53 AM CST 5:15 PM CST
Nautical Twilight 6:17 AM CST 5:51 PM CST
Astronomical Twilight 5:41 AM CST 6:27 PM CST
Moon 12:22 PM CST (11/19) 11:19 PM CST (11/19)
Length of Visible Light 10h 21m
Length of Day
9h 14m
Waxing Crescent, 41% of the Moon is Illuminated
Nov 19
Waxing Crescent
Nov 20
First Quarter
Nov 28
Full
Dec 6
Last Quarter
Dec 13
New

Hourly Weather History & Observations

Time (CST) Temp. Windchill Dew Point Humidity Pressure Visibility Wind Dir Wind Speed Gust Speed Precip Events Conditions
12:13 AM 46.4 °F 42.4 °F 33.8 °F 62% 30.00 in 10.0 mi South 8.1 mph - N/A   Scattered Clouds
12:33 AM 46.4 °F 42.4 °F 33.8 °F 62% 29.99 in 10.0 mi SSE 8.1 mph - N/A   Scattered Clouds
12:54 AM 44.6 °F 39.7 °F 33.8 °F 66% 29.99 in 10.0 mi South 9.2 mph - N/A   Clear
1:13 AM 44.6 °F 39.7 °F 33.8 °F 66% 29.98 in 10.0 mi South 9.2 mph - N/A   Clear
1:33 AM 44.6 °F 39.2 °F 33.8 °F 66% 29.98 in 10.0 mi SSE 10.4 mph - N/A   Clear
1:54 AM 44.6 °F 38.8 °F 33.8 °F 66% 29.98 in 10.0 mi SSE 11.5 mph - N/A   Clear
2:13 AM 44.6 °F 39.7 °F 33.8 °F 66% 29.98 in 10.0 mi SSE 9.2 mph - N/A   Clear
2:33 AM 44.6 °F 39.7 °F 33.8 °F 66% 29.98 in 10.0 mi SSE 9.2 mph - N/A   Clear
2:54 AM 44.6 °F 40.7 °F 33.8 °F 66% 29.98 in 10.0 mi SE 6.9 mph - N/A   Clear
3:13 AM 42.8 °F 38.0 °F 33.8 °F 70% 29.98 in 10.0 mi SSE 8.1 mph - N/A   Clear
3:33 AM 42.8 °F 38.0 °F 33.8 °F 70% 29.97 in 10.0 mi SSE 8.1 mph - N/A   Clear
3:54 AM 42.8 °F 38.0 °F 33.8 °F 70% 29.97 in 10.0 mi SSE 8.1 mph - N/A   Clear
4:13 AM 42.8 °F 39.3 °F 33.8 °F 70% 29.98 in 10.0 mi SSE 5.8 mph - N/A   Clear
4:33 AM 41.0 °F 38.0 °F 33.8 °F 76% 29.98 in 10.0 mi SSE 4.6 mph - N/A   Clear
4:54 AM 39.2 °F 35.0 °F 33.8 °F 81% 29.98 in 10.0 mi South 5.8 mph - N/A   Mostly Cloudy
5:13 AM 39.2 °F 35.9 °F 33.8 °F 81% 29.97 in 10.0 mi SSE 4.6 mph - N/A   Mostly Cloudy
5:33 AM 39.2 °F 35.0 °F 33.8 °F 81% 29.98 in 10.0 mi SSE 5.8 mph - N/A   Scattered Clouds
5:54 AM 39.2 °F 35.9 °F 33.8 °F 81% 29.97 in 10.0 mi SE 4.6 mph - N/A   Scattered Clouds
6:13 AM 39.2 °F 35.9 °F 33.8 °F 81% 29.97 in 10.0 mi SE 4.6 mph - N/A   Scattered Clouds
6:33 AM 37.4 °F 34.9 °F 33.8 °F 87% 29.97 in 10.0 mi SSE 3.5 mph - N/A   Clear
6:54 AM 39.2 °F 35.9 °F 33.8 °F 81% 29.97 in 10.0 mi SE 4.6 mph - N/A   Scattered Clouds
7:33 AM 39.2 °F 37.0 °F 33.8 °F 81% 29.98 in 10.0 mi SSE 3.5 mph - N/A   Overcast
7:54 AM 39.2 °F 37.0 °F 33.8 °F 81% 29.98 in 10.0 mi SSE 3.5 mph - N/A   Overcast
8:13 AM 41.0 °F 39.0 °F 33.8 °F 76% 29.99 in 10.0 mi SSE 3.5 mph - N/A   Mostly Cloudy
8:34 AM 42.8 °F 39.3 °F 35.6 °F 76% 29.98 in 10.0 mi South 5.8 mph - N/A   Overcast
8:53 AM 42.8 °F 38.6 °F 35.6 °F 76% 29.98 in 10.0 mi SSE 6.9 mph - N/A   Scattered Clouds
9:13 AM 44.6 °F 39.2 °F 35.6 °F 71% 29.98 in 10.0 mi South 10.4 mph - N/A   Scattered Clouds
9:34 AM 46.4 °F 41.9 °F 35.6 °F 66% 29.99 in 10.0 mi South 9.2 mph - N/A   Scattered Clouds
9:53 AM 46.4 °F 41.9 °F 35.6 °F 66% 30.00 in 10.0 mi SSW 9.2 mph - N/A   Clear
10:13 AM 48.2 °F - 35.6 °F 62% 30.00 in 10.0 mi SSW 8.1 mph - N/A   Clear
10:34 AM 50.0 °F - 35.6 °F 58% 30.00 in 10.0 mi SW 6.9 mph - N/A   Clear
10:53 AM 50.0 °F - 37.4 °F 62% 30.00 in 10.0 mi SW 5.8 mph - N/A   Clear
11:13 AM 51.8 °F - 37.4 °F 58% 29.99 in 10.0 mi WSW 5.8 mph - N/A   Clear
11:34 AM 51.8 °F - 37.4 °F 58% 29.99 in 10.0 mi SW 4.6 mph - N/A   Clear
11:53 AM 51.8 °F - 37.4 °F 58% 29.98 in 10.0 mi West 5.8 mph - N/A   Clear
12:13 PM 51.8 °F - 37.4 °F 58% 29.99 in 10.0 mi WSW 5.8 mph - N/A   Clear
12:34 PM 53.6 °F - 37.4 °F 54% 29.98 in 10.0 mi WSW 3.5 mph - N/A   Clear
12:53 PM 53.6 °F - 37.4 °F 54% 29.98 in 10.0 mi SW 5.8 mph - N/A   Clear
1:13 PM 53.6 °F - 37.4 °F 54% 29.98 in 10.0 mi West 4.6 mph - N/A   Clear
1:34 PM 53.6 °F - 37.4 °F 54% 29.98 in 10.0 mi WSW 5.8 mph - N/A   Clear
1:53 PM 53.6 °F - 37.4 °F 54% 29.98 in 10.0 mi West 6.9 mph - N/A   Clear
2:13 PM 53.6 °F - 37.4 °F 54% 29.98 in 10.0 mi Calm Calm - N/A   Clear
2:34 PM 55.4 °F - 37.4 °F 51% 29.99 in 10.0 mi West 4.6 mph - N/A   Clear
2:53 PM 53.6 °F - 37.4 °F 54% 30.00 in 10.0 mi WNW 4.6 mph - N/A   Clear
3:13 PM 53.6 °F - 37.4 °F 54% 30.00 in 10.0 mi WNW 6.9 mph - N/A   Clear
3:34 PM 53.6 °F - 37.4 °F 54% 30.01 in 10.0 mi West 8.1 mph - N/A   Clear
3:53 PM 51.8 °F - 37.4 °F 58% 30.02 in 10.0 mi WNW 9.2 mph - N/A   Clear
4:14 PM 48.2 °F - 37.4 °F 66% 30.03 in 10.0 mi West 6.9 mph - N/A   Clear
4:33 PM 44.6 °F 41.4 °F 35.6 °F 71% 30.03 in 10.0 mi West 5.8 mph - N/A   Clear
4:53 PM 44.6 °F 42.2 °F 35.6 °F 71% 30.03 in 10.0 mi WNW 4.6 mph - N/A   Clear
5:14 PM 42.8 °F 38.6 °F 35.6 °F 76% 30.03 in 10.0 mi WNW 6.9 mph - N/A   Clear
5:33 PM 42.8 °F 38.6 °F 35.6 °F 76% 30.05 in 10.0 mi WNW 6.9 mph - N/A   Clear
5:53 PM 42.8 °F 38.0 °F 35.6 °F 76% 30.05 in 10.0 mi WNW 8.1 mph - N/A   Clear
6:14 PM 42.8 °F 37.5 °F 35.6 °F 76% 30.05 in 10.0 mi NW 9.2 mph - N/A   Clear
6:33 PM 39.2 °F 35.0 °F 35.6 °F 87% 30.06 in 10.0 mi NW 5.8 mph - N/A   Clear
6:53 PM 39.2 °F 37.0 °F 35.6 °F 87% 30.06 in 10.0 mi WNW 3.5 mph - N/A   Clear
7:14 PM 37.4 °F 33.8 °F 33.8 °F 87% 30.06 in 10.0 mi WNW 4.6 mph - N/A   Clear
7:33 PM 35.6 °F 31.7 °F 33.8 °F 93% 30.06 in 10.0 mi NW 4.6 mph - N/A   Clear
7:53 PM 33.8 °F 29.6 °F 33.8 °F 100% 30.07 in 7.0 mi WNW 4.6 mph - N/A   Clear
8:14 PM 33.8 °F 28.6 °F 30.2 °F 87% 30.08 in 7.0 mi WNW 5.8 mph - N/A   Clear
8:33 PM 33.8 °F 28.6 °F 32.0 °F 93% 30.08 in 7.0 mi NW 5.8 mph - N/A   Clear
8:53 PM 32.0 °F 27.5 °F 30.2 °F 93% 30.09 in 7.0 mi WNW 4.6 mph - N/A   Clear
9:14 PM 32.0 °F 26.4 °F 30.2 °F 93% 30.10 in 5.0 mi NW 5.8 mph - N/A   Clear
9:33 PM 32.0 °F 27.5 °F 30.2 °F 93% 30.10 in 5.0 mi NW 4.6 mph - N/A   Clear
9:53 PM 30.2 °F 25.4 °F 30.2 °F 100% 30.10 in 5.0 mi NW 4.6 mph - N/A   Clear
10:14 PM 30.2 °F 26.7 °F 30.2 °F 100% 30.10 in 4.0 mi WNW 3.5 mph - N/A   Clear
10:33 PM 28.4 °F 24.6 °F 28.4 °F 100% 30.10 in 2.5 mi NW 3.5 mph - N/A   Clear
10:53 PM 28.4 °F 24.6 °F 28.4 °F 100% 30.10 in 3.0 mi NW 3.5 mph - N/A   Clear
11:14 PM 28.4 °F - 28.4 °F 100% 30.09 in 2.5 mi Calm Calm - N/A   Clear
11:33 PM 26.6 °F 21.2 °F 26.6 °F 100% 30.10 in 0.8 mi WNW 4.6 mph - N/A   Mostly Cloudy
11:53 PM 26.6 °F - 26.6 °F 100% 30.11 in 1.2 mi Calm Calm - N/A   Clear